Simultaneous Nadir Overpasses (SNOs) Predictions

Prediction of SNOs between GOES-16 and NOAA-19 Satellite Orbit:

Table of predicted SNOs for the next 14.0 days since TLE Epoch: 8/30/2024
Index Date Time (GOES-16) GOES-16 Lat,Lon NOAA-19 Lat,Lon Distance(km) Time Diff (sec)
1 08/31/2024 14:29:49 -0.04, -75.21 0.33, -76.82 183.83 80
2 09/01/2024 14:20:07 -0.04, -75.21 -0.36, -73.81 159.60 80
3 09/04/2024 02:36:54 0.05, -75.22 -0.68, -78.45 367.79 80
4 09/05/2024 02:24:32 0.04, -75.23 -0.02, -75.44 23.55 80
5 09/06/2024 02:14:50 0.04, -75.25 0.70, -72.44 320.98 80
6 09/08/2024 14:31:17 -0.04, -75.29 0.37, -76.98 193.82 80
7 09/09/2024 14:21:35 -0.04, -75.31 -0.35, -73.99 150.90 80
8 09/10/2024 14:09:13 -0.04, -75.32 -1.02, -70.97 495.62 80
9 09/12/2024 02:38:19 0.04, -75.33 -0.72, -78.61 373.64 80
10 09/13/2024 02:28:37 0.03, -75.35 -0.03, -75.60 28.62 80
